• Em Portugal
  • Lista de países
  • Para 7 dias
  • Temperatura da água
  • Mapas de satélite
  • Mapa do tempo
  • Widgets de tempo
  • user-avatar
    Iniciar Sessão

    Previsão horária em Sidi Bu-l-Abbas

    Hoje, 24 Fevereiro, Sábado

    Tempo Temperatura Precipitação Vento Pressão Humidade
    00:00 +6°C° 0 mm 2 m/s 710 mmHg 76%
    01:00 +6°C° 0 mm 2 m/s 710 mmHg 77%
    02:00 +5°C° 0 mm 2 m/s 710 mmHg 77%
    03:00 +5°C° 0 mm 2 m/s 710 mmHg 78%
    04:00 +5°C° 0 mm 2 m/s 710 mmHg 79%
    05:00 +4°C° 0 mm 2 m/s 710 mmHg 79%
    06:00 +5°C° 0 mm 1 m/s 710 mmHg 80%
    07:00 +6°C° 0 mm 2 m/s 710 mmHg 73%
    08:00 +7°C° 0 mm 2 m/s 711 mmHg 66%
    09:00 +9°C° 0 mm 2 m/s 711 mmHg 60%
    10:00 +10°C° 0 mm 2 m/s 711 mmHg 55%
    11:00 +11°C° 0 mm 3 m/s 712 mmHg 50%
    12:00 +12°C° 0 mm 3 m/s 712 mmHg 45%
    13:00 +12°C° 0 mm 4 m/s 712 mmHg 44%
    14:00 +12°C° 0 mm 4 m/s 712 mmHg 44%
    15:00 +13°C° 0 mm 4 m/s 712 mmHg 44%
    16:00 +11°C° 0 mm 4 m/s 712 mmHg 51%
    17:00 +10°C° 0 mm 3 m/s 712 mmHg 57%
    18:00 +8°C° 0 mm 2 m/s 713 mmHg 64%
    19:00 +7°C° 0 mm 2 m/s 713 mmHg 70%
    20:00 +7°C° 0 mm 1 m/s 714 mmHg 75%
    21:00 +5°C° 0 mm 0 m/s 714 mmHg 81%
    22:00 +6°C° 0 mm 1 m/s 714 mmHg 82%
    23:00 +6°C° 0 mm 1 m/s 715 mmHg 83%

    Amanhã, 25 Fevereiro, Domingo

    Tempo Temperatura Precipitação Vento Pressão Humidade
    00:00 +5°C° 0 mm 1 m/s 715 mmHg 84%
    01:00 +5°C° 0 mm 1 m/s 715 mmHg 84%
    02:00 +5°C° 0 mm 1 m/s 715 mmHg 83%
    03:00 +5°C° 0 mm 1 m/s 715 mmHg 83%
    04:00 +5°C° 0 mm 1 m/s 715 mmHg 83%
    05:00 +5°C° 0 mm 1 m/s 715 mmHg 83%
    06:00 +5°C° 0 mm 1 m/s 715 mmHg 82%
    07:00 +7°C° 0 mm 1 m/s 716 mmHg 73%
    08:00 +9°C° 0 mm 1 m/s 716 mmHg 63%
    09:00 +11°C° 0 mm 1 m/s 717 mmHg 54%
    10:00 +12°C° 0 mm 1 m/s 717 mmHg 51%
    11:00 +13°C° 0 mm 2 m/s 717 mmHg 48%
    12:00 +15°C° 0 mm 2 m/s 717 mmHg 45%
    13:00 +14°C° 0 mm 3 m/s 716 mmHg 45%
    14:00 +14°C° 0 mm 3 m/s 716 mmHg 46%
    15:00 +14°C° 0 mm 4 m/s 716 mmHg 47%
    16:00 +13°C° 0 mm 3 m/s 716 mmHg 52%
    17:00 +12°C° 0 mm 2 m/s 716 mmHg 58%
    18:00 +9°C° 0 mm 2 m/s 716 mmHg 64%
    19:00 +10°C° 0 mm 1 m/s 716 mmHg 68%
    20:00 +9°C° 0 mm 1 m/s 716 mmHg 71%
    21:00 +8°C° 0 mm 1 m/s 716 mmHg 75%
    22:00 +8°C° 0 mm 1 m/s 716 mmHg 76%
    23:00 +8°C° 0 mm 1 m/s 716 mmHg 77%

    Depois de amanhã, 26 Fevereiro, Segunda-feira

    Tempo Temperatura Precipitação Vento Pressão Humidade
    00:00 +7°C° 0 mm 1 m/s 716 mmHg 79%
    01:00 +7°C° 0 mm 1 m/s 715 mmHg 78%
    02:00 +7°C° 0 mm 1 m/s 715 mmHg 78%
    03:00 +6°C° 0 mm 2 m/s 715 mmHg 77%
    04:00 +6°C° 0 mm 2 m/s 714 mmHg 77%
    05:00 +6°C° 0 mm 2 m/s 714 mmHg 77%
    06:00 +6°C° 0 mm 2 m/s 713 mmHg 77%
    07:00 +8°C° 0 mm 2 m/s 713 mmHg 68%
    08:00 +12°C° 0 mm 2 m/s 713 mmHg 59%
    09:00 +14°C° 0 mm 2 m/s 713 mmHg 51%
    10:00 +16°C° 0 mm 2 m/s 713 mmHg 46%
    11:00 +18°C° 0 mm 2 m/s 713 mmHg 41%
    12:00 +19°C° 0 mm 2 m/s 712 mmHg 37%
    13:00 +20°C° 0 mm 3 m/s 712 mmHg 37%
    14:00 +20°C° 0 mm 4 m/s 711 mmHg 38%
    15:00 +20°C° 0 mm 4 m/s 710 mmHg 38%
    16:00 +18°C° 0 mm 4 m/s 710 mmHg 45%
    17:00 +16°C° 0 mm 3 m/s 709 mmHg 52%
    18:00 +14°C° 0 mm 2 m/s 709 mmHg 59%
    19:00 +13°C° 0 mm 2 m/s 710 mmHg 61%
    20:00 +13°C° 0 mm 2 m/s 711 mmHg 64%
    21:00 +12°C° 0 mm 2 m/s 711 mmHg 66%
    22:00 +11°C° 0 mm 3 m/s 712 mmHg 68%
    23:00 +10°C° 0 mm 3 m/s 712 mmHg 70%

    27 Fevereiro, Terça-feira

    Tempo Temperatura Precipitação Vento Pressão Humidade
    00:00 +10°C° 0 mm 3 m/s 713 mmHg 72%
    01:00 +10°C° 0,1 mm 3 m/s 712 mmHg 74%
    02:00 +9°C° 0,1 mm 3 m/s 712 mmHg 76%
    03:00 +9°C° 0,1 mm 2 m/s 712 mmHg 78%
    04:00 +9°C° 0,1 mm 3 m/s 712 mmHg 77%
    05:00 +8°C° 0,1 mm 4 m/s 712 mmHg 76%
    06:00 +8°C° 0,1 mm 5 m/s 712 mmHg 75%
    07:00 +9°C° 0 mm 6 m/s 713 mmHg 69%
    08:00 +11°C° 0 mm 7 m/s 713 mmHg 63%
    09:00 +13°C° 0 mm 8 m/s 713 mmHg 57%
    10:00 +15°C° 0 mm 9 m/s 713 mmHg 53%
    11:00 +16°C° 0 mm 10 m/s 714 mmHg 49%
    12:00 +17°C° 0 mm 10 m/s 714 mmHg 45%
    13:00 +17°C° 0 mm 10 m/s 713 mmHg 45%
    14:00 +17°C° 0 mm 10 m/s 713 mmHg 44%
    15:00 +17°C° 0 mm 9 m/s 713 mmHg 44%
    16:00 +16°C° 0 mm 7 m/s 713 mmHg 52%
    17:00 +14°C° 0 mm 5 m/s 713 mmHg 60%
    18:00 +12°C° 0 mm 4 m/s 713 mmHg 67%
    19:00 +11°C° 0 mm 3 m/s 713 mmHg 71%
    20:00 +12°C° 0 mm 2 m/s 714 mmHg 75%
    21:00 +11°C° 0 mm 1 m/s 714 mmHg 78%
    22:00 +10°C° 0 mm 2 m/s 714 mmHg 75%
    23:00 +10°C° 0 mm 2 m/s 714 mmHg 72%

    28 Fevereiro, Quarta-feira

    Tempo Temperatura Precipitação Vento Pressão Humidade
    00:00 +9°C° 0 mm 2 m/s 713 mmHg 69%
    01:00 +9°C° 0 mm 2 m/s 713 mmHg 67%
    02:00 +10°C° 0 mm 1 m/s 713 mmHg 64%
    03:00 +10°C° 0 mm 1 m/s 712 mmHg 62%
    04:00 +9°C° 0 mm 2 m/s 712 mmHg 59%
    05:00 +9°C° 0 mm 2 m/s 712 mmHg 57%
    06:00 +9°C° 0 mm 3 m/s 712 mmHg 54%
    07:00 +12°C° 0 mm 3 m/s 712 mmHg 47%
    08:00 +14°C° 0 mm 3 m/s 712 mmHg 41%
    09:00 +18°C° 0 mm 3 m/s 712 mmHg 34%
    10:00 +20°C° 0 mm 4 m/s 712 mmHg 30%
    11:00 +22°C° 0 mm 5 m/s 712 mmHg 26%
    12:00 +25°C° 0 mm 5 m/s 712 mmHg 22%
    13:00 +24°C° 0 mm 6 m/s 711 mmHg 21%
    14:00 +26°C° 0 mm 7 m/s 710 mmHg 21%
    15:00 +27°C° 0 mm 8 m/s 709 mmHg 21%
    16:00 +23°C° 0 mm 7 m/s 709 mmHg 27%
    17:00 +21°C° 0 mm 5 m/s 708 mmHg 33%
    18:00 +18°C° 0 mm 4 m/s 708 mmHg 38%
    19:00 +17°C° 0 mm 4 m/s 708 mmHg 43%
    20:00 +16°C° 0 mm 3 m/s 708 mmHg 47%
    21:00 +14°C° 0 mm 3 m/s 709 mmHg 52%
    22:00 +13°C° 0 mm 3 m/s 709 mmHg 58%
    23:00 +13°C° 0 mm 2 m/s 709 mmHg 65%

    1 Março, Quinta-feira

    Tempo Temperatura Precipitação Vento Pressão Humidade
    00:00 +12°C° 0 mm 2 m/s 708 mmHg 72%
    01:00 +12°C° 0 mm 2 m/s 708 mmHg 70%
    02:00 +12°C° 0 mm 2 m/s 707 mmHg 68%
    03:00 +11°C° 0 mm 3 m/s 706 mmHg 66%
    04:00 +11°C° 0 mm 3 m/s 706 mmHg 63%
    05:00 +11°C° 0 mm 3 m/s 706 mmHg 59%
    06:00 +11°C° 0 mm 3 m/s 706 mmHg 56%
    07:00 +12°C° 0,2 mm 4 m/s 707 mmHg 59%
    08:00 +13°C° 0,2 mm 5 m/s 708 mmHg 62%
    09:00 +14°C° 0,2 mm 5 m/s 708 mmHg 65%
    10:00 +16°C° 0 mm 8 m/s 709 mmHg 56%
    11:00 +18°C° 0 mm 12 m/s 709 mmHg 47%
    12:00 +20°C° 0 mm 15 m/s 710 mmHg 37%
    13:00 +20°C° 0 mm 14 m/s 710 mmHg 39%
    14:00 +20°C° 0 mm 14 m/s 709 mmHg 40%
    15:00 +19°C° 0 mm 14 m/s 709 mmHg 42%
    16:00 +18°C° 0 mm 12 m/s 710 mmHg 47%
    17:00 +17°C° 0 mm 10 m/s 710 mmHg 53%
    18:00 +16°C° 0 mm 8 m/s 711 mmHg 58%
    19:00 +15°C° 0 mm 8 m/s 712 mmHg 61%
    20:00 +15°C° 0 mm 8 m/s 712 mmHg 63%
    21:00 +13°C° 0 mm 8 m/s 713 mmHg 66%
    22:00 +13°C° 0 mm 8 m/s 713 mmHg 67%
    23:00 +13°C° 0 mm 8 m/s 714 mmHg 67%
    Mostrar mais